Weather History for Frankfurt / M-Flughafen, Germany

Change the Weather History Date:

Saturday, July 13, 2013

  Actual Average Record
Temperature  
Mean Temperature 67 °F -  
Max Temperature 78 °F 75 °F - ()
Min Temperature 56 °F 56 °F - ()
Cooling Degree Days 2    
Growing Degree Days 17 (Base 50)    
Moisture  
Dew Point 51 °F    
Average Humidity 53    
Maximum Humidity 82    
Minimum Humidity 23    
Precipitation  
Precipitation 0.00 in - - ()
Sea Level Pressure  
Sea Level Pressure 30.15 in    
Wind  
Wind Speed 7 mph ()    
Max Wind Speed 13 mph    
Max Gust Speed -    
Visibility 13.9 miles    
Events      
T = Trace of Precipitation, MM = Missing Value Source: Averaged Metar Reports

Daily Weather History Graph

Daily Weather History Graph

Search for Another Location

Airport:

Trip Planner

Search our weather history database for the weather conditions in past years. The results will help you decide how hot, cold, wet, or windy it might be!

Date:

Astronomy

Jul. 13, 2013 Rise Set
Actual Time 5:30 AM CEST 9:31 PM CEST
Civil Twilight 4:48 AM CEST 10:13 PM CEST
Nautical Twilight 3:48 AM CEST 11:13 PM CEST
Astronomical Twilight 1:50 AM CEST 1:03 AM CEST
Moon 11:06 AM CEST (7/13) 11:24 PM CEST (7/13)
Length of Visible Light 17h 25m
Length of Day
16h 00m
Waxing Crescent, 23% of the Moon is Illuminated
Jul 13
Waxing Crescent
Jul 16
First Quarter
Jul 22
Full
Jul 29
Last Quarter
Aug 6
New

Hourly Weather History & Observations

Time (CEST) Temp. Dew Point Humidity Pressure Visibility Wind Dir Wind Speed Gust Speed Precip Events Conditions
12:00 AM 64 °F 52 °F 56% 30.15 in 31 mi North 8.9 mph - -   Clear
12:20 AM 64.4 °F 51.8 °F 64% 30.15 in - NNE 11.5 mph - N/A   Clear
12:50 AM 62.6 °F 51.8 °F 68% 30.15 in - North 10.4 mph - N/A   Clear
1:00 AM 63 °F 52 °F 58% 30.16 in 25 mi North 11.2 mph - -   Clear
1:20 AM 62.6 °F 51.8 °F 68% 30.15 in - North 10.4 mph - N/A   Clear
1:50 AM 62.6 °F 51.8 °F 68% 30.15 in - NNE 10.4 mph - N/A   Clear
2:00 AM 62 °F 51 °F 58% 30.16 in 25 mi NNE 8.9 mph - -   Clear
2:20 AM 60.8 °F 50.0 °F 68% 30.15 in - NNE 9.2 mph - N/A   Clear
2:50 AM 60.8 °F 50.0 °F 68% 30.15 in - NNE 10.4 mph - N/A   Clear
3:00 AM 61 °F 50 °F 58% 30.16 in 25 mi NNE 8.9 mph - -  
3:20 AM 60.8 °F 50.0 °F 68% 30.15 in - NNE 8.1 mph - N/A   Clear
3:50 AM 59.0 °F 50.0 °F 72% 30.15 in - NNE 8.1 mph - N/A   Clear
4:00 AM 60 °F 50 °F 61% 30.16 in 25 mi NNE 6.7 mph - -  
4:20 AM 59.0 °F 50.0 °F 72% 30.15 in - NNE 6.9 mph - N/A   Clear
4:50 AM 57.2 °F 50.0 °F 77% 30.15 in - NNE 4.6 mph - N/A   Clear
5:20 AM 55.4 °F 50.0 °F 82% 30.15 in - NNE 5.8 mph - N/A   Clear
5:50 AM 57.2 °F 50.0 °F 77% 30.15 in - NNE 5.8 mph - N/A   Clear
6:00 AM 57 °F 50 °F 71% 30.17 in 19 mi NE 4.5 mph - -  
6:20 AM 57.2 °F 50.0 °F 77% 30.15 in - NNE 5.8 mph - N/A   Clear
6:50 AM 57.2 °F 51.8 °F 82% 30.15 in - NNE 6.9 mph - N/A   Clear
7:00 AM 57 °F 51 °F 74% 30.16 in 16 mi NE 2.2 mph - -  
7:20 AM 59.0 °F 51.8 °F 77% 30.15 in - NNE 9.2 mph - N/A   Clear
7:50 AM 60.8 °F 51.8 °F 72% 30.15 in - NNE 6.9 mph - N/A   Clear
8:00 AM 61 °F 51 °F 62% 30.16 in 16 mi NNE 6.7 mph - -  
8:20 AM 62.6 °F 51.8 °F 68% 30.15 in - NE 9.2 mph - N/A   Clear
8:50 AM 64.4 °F 53.6 °F 68% 30.15 in - NNE 6.9 mph - N/A   Clear
9:00 AM 64 °F 53 °F 58% 30.17 in 16 mi NE 4.5 mph - -  
9:20 AM 64.4 °F 51.8 °F 64% 30.15 in - NE 6.9 mph - N/A   Clear
9:50 AM 66.2 °F 53.6 °F 64% 30.18 in 6.2 mi NNE 4.6 mph - N/A   Partly Cloudy
10:00 AM 66 °F 53 °F 53% 30.17 in 16 mi NE 4.5 mph - -   Scattered Clouds
10:20 AM 68.0 °F 53.6 °F 60% 30.15 in 6.2 mi North 4.6 mph - N/A   Partly Cloudy
10:50 AM 69.8 °F 53.6 °F 56% 30.15 in 6.2 mi NNE 4.6 mph - N/A   Partly Cloudy
11:20 AM 71.6 °F 53.6 °F 53% 30.15 in 6.2 mi NNE 4.6 mph - N/A   Partly Cloudy
11:50 AM 71.6 °F 50.0 °F 46% 30.15 in 6.2 mi North 4.6 mph - N/A   Partly Cloudy
12:00 PM 72 °F 51 °F 37% 30.16 in 16 mi NE 4.5 mph - -   Scattered Clouds
12:20 PM 73.4 °F 50.0 °F 44% 30.15 in 6.2 mi NE 4.6 mph - N/A   Partly Cloudy
12:50 PM 75.2 °F 50.0 °F 41% 30.15 in - North 4.6 mph - N/A   Clear
1:00 PM 74 °F 50 °F 32% 30.15 in 17 mi North 6.7 mph - -   Scattered Clouds
1:20 PM 75.2 °F 50.0 °F 41% 30.15 in - Variable 3.5 mph - N/A   Clear
1:50 PM 75.2 °F 48.2 °F 38% 30.15 in - North 3.5 mph - N/A   Clear
2:00 PM 76 °F 49 °F 27% 30.14 in 17 mi ENE 2.2 mph - -   Scattered Clouds
2:20 PM 77.0 °F 48.2 °F 36% 30.15 in - NNE 2.3 mph - N/A   Clear
2:50 PM 77.0 °F 46.4 °F 34% 30.15 in - NNW 3.5 mph - N/A   Clear
3:00 PM 77 °F 46 °F 23% 30.14 in 17 mi NNE 4.5 mph - -   Scattered Clouds
3:20 PM 77.0 °F 51.8 °F 41% 30.12 in - WNW 4.6 mph - N/A   Clear
3:50 PM 78.8 °F 48.2 °F 34% 30.15 in - Variable 3.5 mph - N/A   Clear
4:00 PM 78 °F 48 °F 24% 30.14 in 19 mi NNW 8.9 mph - -   Scattered Clouds
4:20 PM 75.2 °F 50.0 °F 41% 30.15 in - North 4.6 mph - N/A   Clear
4:50 PM 77.0 °F 50.0 °F 39% 30.15 in - NNE 6.9 mph - N/A   Clear
5:20 PM 77.0 °F 50.0 °F 39% 30.12 in - NNE 5.8 mph - N/A   Clear
5:50 PM 77.0 °F 48.2 °F 36% 30.12 in - North 6.9 mph - N/A   Clear
6:00 PM 77 °F 48 °F 25% 30.12 in 19 mi NNW 6.7 mph - -   Partly Cloudy
6:20 PM 75.2 °F 48.2 °F 38% 30.12 in - NE 4.6 mph - N/A   Clear
6:50 PM 75.2 °F 48.2 °F 38% 30.12 in - NE 4.6 mph - N/A   Clear
7:00 PM 76 °F 48 °F 26% 30.12 in 19 mi NNW 4.5 mph - -   Partly Cloudy
7:20 PM 77.0 °F 48.2 °F 36% 30.12 in - North 6.9 mph - N/A   Clear
7:50 PM 77.0 °F 48.2 °F 36% 30.12 in - NW 9.2 mph - N/A   Clear
8:00 PM 76 °F 49 °F 28% 30.13 in 19 mi North 4.5 mph - -   Partly Cloudy
8:20 PM 75.2 °F 53.6 °F 47% 30.12 in - NW 12.7 mph - N/A   Clear
8:50 PM 73.4 °F 53.6 °F 50% 30.15 in - NNW 10.4 mph - N/A   Clear
9:00 PM 73 °F 53 °F 40% 30.14 in 22 mi NNW 11.2 mph - -   Scattered Clouds
9:20 PM 71.6 °F 53.6 °F 53% 30.15 in - NNW 9.2 mph - N/A   Clear
9:50 PM 69.8 °F 53.6 °F 56% 30.15 in - NNW 10.4 mph - N/A   Clear
10:00 PM 70 °F 54 °F 46% 30.16 in 22 mi NNW 8.9 mph - -   Scattered Clouds
10:20 PM 68.0 °F 53.6 °F 60% 30.18 in - NNW 11.5 mph - N/A   Clear
10:50 PM 68.0 °F 53.6 °F 60% 30.18 in - NNW 9.2 mph - N/A   Clear
11:20 PM 66.2 °F 53.6 °F 64% 30.18 in - North 10.4 mph - N/A   Clear
11:50 PM 66.2 °F 53.6 °F 64% 30.18 in - North 8.1 mph - N/A   Clear